Powrót do katalogu

TITAN 3C TRANSTAGE DEB

AktywnyHEO
NORAD 47713·DEBRIS·🇺🇸 United States

Wystrzelony Dec 21, 1965 z Cape Canaveral Space Force Station

Loading…

Następne Przeloty (najbliższe 24 godziny)

TLE

ŚwieżeSource: Space-Track

Epoka: Sep 8, 2026, 09:09 UTC

1 47713U 65108DS  26251.38152138  .00000154  00000-0  70765-3 0  9997
2 47713  26.9466 230.8619 5511013 327.3993   8.1133  4.52346073211079

Śledź TITAN 3C TRANSTAGE DEB w czasie rzeczywistym z AllMySat

Download on the App Store